Regional Weather Roundup
Issued by NWS

Home | Current Version | Previous Version | Text Only | Print | Product List | Glossary On
Versions: 1 2 3 4 5 6 7 8 9 10 11 12 13 14 15 16 17 18 19 20 21 22 23 24 25 26 27 28 29 30 31 32 33 34 35 36 37 38 39 40 41 42 43 44 45 46 47 48 49 50
000
ASUS43 KDTX 192301
RWRMI
MICHIGAN HOURLY REGIONAL WEATHER ROUNDUP
NATIONAL WEATHER SERVICE DETROIT/PONTIAC MI
600 PM EST FRI JAN 19 2018

NOTE: "FAIR" INDICATES FEW OR NO CLOUDS BELOW 12,000 FEET WITH NO
SIGNIFICANT WEATHER AND/OR OBSTRUCTION TO VISIBILITY.

MIZ047>049-052>055-059>063-066>070-074>076-081>083-200000-
SOUTHEAST LOWER MICHIGAN

CITY           SKY/WX    TMP DP  RH WIND       PRES   REMARKS
ADRIAN         FAIR      32  22  66 SW18G26   29.84F WCI  20
ALMA           FAIR      35  25  67 S12       29.69F WCI  26
ANN ARBOR      FAIR      32  22  66 S13G22    29.81F WCI  22
BAD AXE        FAIR      36  24  60 SW12      29.68F WCI  28
CARO           FAIR      37  24  60 S15G23    29.68F WCI  28
DETROIT CITY   FAIR      34  21  59 SW15G24   29.82F WCI  24
DETROIT        MOCLDY    33  23  66 S18       29.83F WCI  22
FLINT          FAIR      37  22  54 S14       29.73F WCI  28
GROSSE ILE     FAIR      33  23  66 SW16G23   29.83F WCI  23
HILLSDALE      FAIR      34  21  60 S14G20    29.79F WCI  24
HOWELL         FAIR      34  23  63 S12G17    29.75F WCI  26

CITY           SKY/WX    TMP DP  RH WIND       PRES   REMARKS
JACKSON        FAIR      35  21  56 S14       29.78F WCI  26
LAMBERTVILLE   FAIR      33  22  64 SW13G20   29.86F WCI  24
LANSING        FAIR      33  22  63 SW16      29.74F WCI  23
LAPEER         FAIR      36  23  58 SW12G18   29.73F WCI  28
MONROE         FAIR      33  21  62 S14G20    29.84F WCI  23
MT. CLEMENS    CLOUDY    33  20  59 SW14      29.79F WCI  23
PONTIAC        CLOUDY    32  22  66 S13       29.76F WCI  22
PORT HOPE        N/A     37  23  56 SW8       29.65F WCI  31
PORT HURON     FAIR      32  21  64 S12G20    29.78F WCI  23
TRI CITIES     FAIR      36  24  62 SW15      29.68F WCI  27
MIDLAND        FAIR      36  25  65 S10       29.67F WCI  28
SAGINAW HB     FAIR      34  25  69 S15G22    29.69F WCI  24
$$
MIZ043>046-050>051-056>058-064>065-071>073-077>080-200000-
SOUTHWEST LOWER MICHIGAN

CITY           SKY/WX    TMP DP  RH WIND       PRES   REMARKS
BATTLE CREEK   FAIR      33  22  63 SW16      29.77F WCI  23
BENTON HARBOR  FAIR      35  23  61 S13G21    29.78F WCI  26
BIG RAPIDS     FAIR      34  22  63 SW8G16    29.66R WCI  27
COLDWATER      FAIR      34  22  63 SW10G20   29.80F WCI  26
FREMONT        FAIR      33  22  63 SW16G22   29.69S WCI  22
HOLLAND        FAIR      34  24  67 S10G22    29.73F WCI  26
GRAND RAPIDS   MOCLDY    36  22  56 SW13G22   29.71F WCI  27
IONIA          FAIR      34  22  61 S18       29.70F WCI  23
KALAMAZOO      FAIR      34  22  61 S15       29.78F WCI  24
LUDINGTON      FAIR      35  28  77 S16       29.64F WCI  25
MARSHALL       FAIR      33  20  59 S13       29.77F WCI  24
MOUNT PLEASANT FAIR      37  24  58 S10       29.66F WCI  30
MUSKEGON       CLOUDY    35  26  69 S18G28    29.71F WCI  24
SOUTH HAVEN    FAIR      35  23  60 S9        29.77F WCI  28
$$
MIZ016>042-200000-
NORTHERN LOWER MICHIGAN

CITY           SKY/WX    TMP DP  RH WIND       PRES   REMARKS
ALPENA         FAIR      41  29  62 SW13      29.54F
BEAVER ISLAND  FAIR      36  31  82 SW20G28   29.49F WCI  25
CADILLAC       FAIR      34  27  75 SW21G28   29.58S WCI  22
CHARLEVOIX     FAIR      39  28  63 SW16G22   29.54F WCI  31
FRANKFORT      FAIR      37  28  69 SW12G21   29.58F WCI  30
GAYLORD        FAIR      38  28  67 SW15      29.52F WCI  29
GRAYLING       FAIR      38  26  60 S9        29.57F WCI  32
HARBOR SPRINGS FAIR      37  29  71 SW8       29.51F WCI  31
HOUGHTON LAKE  FAIR      37  26  64 S12       29.59F WCI  29
MANISTEE       FAIR      36  27  69 S12G21    29.60F WCI  28
OSCODA         FAIR      34  25  69 SW13G20   29.61S WCI  25
PELLSTON       FAIR      40  28  62 VRB3      29.50F
ROGERS CITY    FAIR      39  28  64 S13       29.51F WCI  32
TRAVERSE CITY  CLOUDY    41  27  57 VRB7      29.55F
$$
MIZ007>008-015-200000-
EASTERN UPPER MICHIGAN

CITY           SKY/WX    TMP DP  RH WIND       PRES   REMARKS
KINROSS        MOCLDY    34  30  85 SW7       29.49F WCI  28
MACKINAC ISLAN FAIR      33  27  79 NW5       29.52R WCI  29
NEWBERRY       CLOUDY    33  33  96 SW20G25   29.45F WCI  22
S. S. MARIE    MOCLDY    37  30  75 S7        29.50S WCI  32
MUNISING         N/A     33  27  78 S14G23    29.42F WCI  23
$$
MIZ004>006-011>014-085-200000-
CENTRAL UPPER MICHIGAN

CITY           SKY/WX    TMP DP  RH WIND       PRES   REMARKS
ESCANABA       FAIR      32  26  78 S8        29.48F WCI  25
MENOMINEE      FAIR      35  26  69 SW15      29.48F WCI  25
SAWYER-GWINN   CLEAR     32  23  69 S12       29.41F WCI  23
$$
MIZ001>003-009>011-084-200000-
WESTERN UPPER MICHIGAN

CITY           SKY/WX    TMP DP  RH WIND       PRES   REMARKS
IRON MOUNTAIN  FAIR      32  24  72 S5        29.43R WCI  27
HOUGHTON       FAIR      40  25  55 W8        29.34F WCI  34
COPPER HARBOR    N/A     41  26  55 SE6       29.33F
IRONWOOD       FAIR      41  25  53 SW10      29.42R
$$

ABBREVIATIONS USED IN REMARKS
   TC - TEMPERATURE IN CELSIUS
  WCI - WIND CHILL INDEX
   HX - HEAT INDEX
  VSB - VISIBILITY




USA.gov is the U.S. government's official web portal to all federal, state and local government web resources and services.